Year,Month,Day,Hour,Minute,Value (Times are PST for windgust in km/hr)
2015,11,17,00,00,4.80
2015,11,17,00,01,9.60
2015,11,17,00,02,11.30
2015,11,17,00,03,6.40
2015,11,17,00,04,8.10
2015,11,17,00,05,6.40
2015,11,17,00,06,4.80
2015,11,17,00,07,3.20
2015,11,17,00,08,6.40
2015,11,17,00,09,8.10
2015,11,17,00,10,8.10
2015,11,17,00,11,6.40
2015,11,17,00,12,4.80
2015,11,17,00,13,6.40
2015,11,17,00,14,4.80
2015,11,17,00,15,3.20
2015,11,17,00,16,9.60
2015,11,17,00,17,4.80
2015,11,17,00,18,4.80
2015,11,17,00,19,4.80
2015,11,17,00,20,3.20
2015,11,17,00,21,8.10
2015,11,17,00,22,6.40
2015,11,17,00,23,6.40
2015,11,17,00,24,4.80
2015,11,17,00,25,4.80
2015,11,17,00,26,4.80
2015,11,17,00,27,1.60
2015,11,17,00,28,3.20
2015,11,17,00,29,1.60
2015,11,17,00,30,4.80
2015,11,17,00,31,3.20
2015,11,17,00,32,3.20
2015,11,17,00,33,3.20
2015,11,17,00,34,3.20
2015,11,17,00,35,3.20
2015,11,17,00,36,3.20
2015,11,17,00,37,4.80
2015,11,17,00,38,3.20
2015,11,17,00,39,9.60
2015,11,17,00,40,9.60
2015,11,17,00,41,9.60
2015,11,17,00,42,8.10
2015,11,17,00,43,6.40
2015,11,17,00,44,8.10
2015,11,17,00,45,6.40
2015,11,17,00,46,3.20
2015,11,17,00,47,3.20
2015,11,17,00,48,1.60
2015,11,17,00,49,3.20
2015,11,17,00,50,4.80
2015,11,17,00,51,4.80
2015,11,17,00,52,6.40
2015,11,17,00,53,8.10
2015,11,17,00,54,6.40
2015,11,17,00,55,8.10
2015,11,17,00,56,8.10
2015,11,17,00,57,8.10
2015,11,17,00,58,8.10
2015,11,17,00,59,14.50
2015,11,17,01,00,8.10
2015,11,17,01,01,8.10
2015,11,17,01,02,3.20
2015,11,17,01,03,4.80
2015,11,17,01,04,8.10
2015,11,17,01,05,4.80
2015,11,17,01,06,6.40
2015,11,17,01,07,11.30
2015,11,17,01,08,3.20
2015,11,17,01,09,8.10
2015,11,17,01,10,8.10
2015,11,17,01,11,6.40
2015,11,17,01,12,8.10
2015,11,17,01,13,4.80
2015,11,17,01,14,3.20
2015,11,17,01,15,4.80
2015,11,17,01,16,3.20
2015,11,17,01,17,1.60
2015,11,17,01,18,1.60
2015,11,17,01,19,1.60
2015,11,17,01,20,1.60
2015,11,17,01,21,3.20
2015,11,17,01,22,1.60
2015,11,17,01,23,3.20
2015,11,17,01,24,6.40
2015,11,17,01,25,4.80
2015,11,17,01,26,1.60
2015,11,17,01,27,3.20
2015,11,17,01,28,3.20
2015,11,17,01,29,6.40
2015,11,17,01,30,8.10
2015,11,17,01,31,1.60
2015,11,17,01,32,1.60
2015,11,17,01,33,1.60
2015,11,17,01,34,3.20
2015,11,17,01,35,3.20
2015,11,17,01,36,4.80
2015,11,17,01,37,4.80
2015,11,17,01,38,9.60
2015,11,17,01,39,8.10
2015,11,17,01,40,4.80
2015,11,17,01,41,6.40
2015,11,17,01,42,6.40
2015,11,17,01,43,4.80
2015,11,17,01,44,6.40
2015,11,17,01,45,3.20
2015,11,17,01,46,3.20
2015,11,17,01,47,6.40
2015,11,17,01,48,6.40
2015,11,17,01,49,4.80
2015,11,17,01,50,3.20
2015,11,17,01,51,3.20
2015,11,17,01,52,1.60
2015,11,17,01,53,1.60
2015,11,17,01,54,1.60
2015,11,17,01,55,3.20
2015,11,17,01,56,1.60
2015,11,17,01,57,3.20
2015,11,17,01,58,3.20
2015,11,17,01,59,3.20
2015,11,17,02,00,3.20
2015,11,17,02,01,1.60
2015,11,17,02,02,1.60
2015,11,17,02,03,3.20
2015,11,17,02,04,3.20
2015,11,17,02,05,3.20
2015,11,17,02,06,1.60
2015,11,17,02,07,3.20
2015,11,17,02,08,4.80
2015,11,17,02,09,4.80
2015,11,17,02,10,4.80
2015,11,17,02,11,6.40
2015,11,17,02,12,3.20
2015,11,17,02,13,3.20
2015,11,17,02,14,1.60
2015,11,17,02,15,3.20
2015,11,17,02,16,3.20
2015,11,17,02,17,1.60
2015,11,17,02,18,3.20
2015,11,17,02,19,4.80
2015,11,17,02,20,1.60
2015,11,17,02,21,1.60
2015,11,17,02,22,1.60
2015,11,17,02,23,1.60
2015,11,17,02,24,1.60
2015,11,17,02,25,3.20
2015,11,17,02,26,3.20
2015,11,17,02,27,1.60
2015,11,17,02,28,1.60
2015,11,17,02,29,1.60
2015,11,17,02,30,3.20
2015,11,17,02,31,1.60
2015,11,17,02,32,1.60
2015,11,17,02,33,1.60
2015,11,17,02,34,3.20
2015,11,17,02,35,3.20
2015,11,17,02,36,3.20
2015,11,17,02,37,3.20
2015,11,17,02,38,3.20
2015,11,17,02,39,3.20
2015,11,17,02,40,3.20
2015,11,17,02,41,1.60
2015,11,17,02,42,3.20
2015,11,17,02,43,3.20
2015,11,17,02,44,1.60
2015,11,17,02,45,3.20
2015,11,17,02,46,3.20
2015,11,17,02,47,1.60
2015,11,17,02,48,3.20
2015,11,17,02,49,3.20
2015,11,17,02,50,1.60
2015,11,17,02,51,3.20
2015,11,17,02,52,1.60
2015,11,17,02,53,3.20
2015,11,17,02,54,3.20
2015,11,17,02,55,4.80
2015,11,17,02,56,3.20
2015,11,17,02,57,3.20
2015,11,17,02,58,3.20
2015,11,17,02,59,3.20
2015,11,17,03,00,4.80
2015,11,17,03,01,4.80
2015,11,17,03,02,3.20
2015,11,17,03,03,6.40
2015,11,17,03,04,6.40
2015,11,17,03,05,6.40
2015,11,17,03,06,8.10
2015,11,17,03,07,6.40
2015,11,17,03,08,4.80
2015,11,17,03,09,8.10
2015,11,17,03,10,4.80
2015,11,17,03,11,4.80
2015,11,17,03,12,3.20
2015,11,17,03,13,1.60
2015,11,17,03,14,3.20
2015,11,17,03,15,3.20
2015,11,17,03,16,3.20
2015,11,17,03,17,3.20
2015,11,17,03,18,1.60
2015,11,17,03,19,1.60
2015,11,17,03,20,1.60
2015,11,17,03,21,1.60
2015,11,17,03,22,4.80
2015,11,17,03,23,1.60
2015,11,17,03,24,3.20
2015,11,17,03,25,3.20
2015,11,17,03,26,1.60
2015,11,17,03,27,1.60
2015,11,17,03,28,1.60
2015,11,17,03,29,1.60
2015,11,17,03,31,1.60
2015,11,17,03,32,3.20
2015,11,17,03,33,3.20
2015,11,17,03,34,1.60
2015,11,17,03,35,1.60
2015,11,17,03,36,1.60
2015,11,17,03,37,1.60
2015,11,17,03,38,1.60
2015,11,17,03,39,1.60
2015,11,17,03,40,3.20
2015,11,17,03,41,3.20
2015,11,17,03,42,3.20
2015,11,17,03,43,3.20
2015,11,17,03,44,8.10
2015,11,17,03,45,3.20
2015,11,17,03,46,4.80
2015,11,17,03,47,4.80
2015,11,17,03,48,8.10
2015,11,17,03,49,6.40
2015,11,17,03,50,4.80
2015,11,17,03,51,1.60
2015,11,17,03,52,1.60
2015,11,17,03,54,1.60
2015,11,17,03,55,3.20
2015,11,17,03,56,8.10
2015,11,17,03,57,4.80
2015,11,17,03,58,4.80
2015,11,17,03,59,3.20
2015,11,17,04,00,4.80
2015,11,17,04,01,4.80
2015,11,17,04,02,4.80
2015,11,17,04,03,4.80
2015,11,17,04,04,4.80
2015,11,17,04,05,4.80
2015,11,17,04,06,3.20
2015,11,17,04,07,6.40
2015,11,17,04,08,4.80
2015,11,17,04,09,3.20
2015,11,17,04,10,6.40
2015,11,17,04,11,8.10
2015,11,17,04,12,4.80
2015,11,17,04,13,4.80
2015,11,17,04,14,4.80
2015,11,17,04,15,6.40
2015,11,17,04,16,4.80
2015,11,17,04,17,4.80
2015,11,17,04,18,4.80
2015,11,17,04,19,1.60
2015,11,17,04,20,3.20
2015,11,17,04,21,8.10
2015,11,17,04,22,4.80
2015,11,17,04,23,9.60
2015,11,17,04,24,8.10
2015,11,17,04,25,4.80
2015,11,17,04,26,1.60
2015,11,17,04,27,4.80
2015,11,17,04,28,4.80
2015,11,17,04,29,4.80
2015,11,17,04,30,3.20
2015,11,17,04,31,3.20
2015,11,17,04,32,1.60
2015,11,17,04,33,1.60
2015,11,17,04,34,3.20
2015,11,17,04,35,4.80
2015,11,17,04,36,8.10
2015,11,17,04,37,4.80
2015,11,17,04,38,3.20
2015,11,17,04,39,1.60
2015,11,17,04,41,1.60
2015,11,17,04,42,3.20
2015,11,17,04,43,3.20
2015,11,17,04,44,3.20
2015,11,17,04,45,4.80
2015,11,17,04,46,6.40
2015,11,17,04,47,1.60
2015,11,17,04,48,1.60
2015,11,17,04,50,3.20
2015,11,17,04,51,3.20
2015,11,17,04,52,3.20
2015,11,17,04,53,1.60
2015,11,17,04,54,1.60
2015,11,17,04,55,1.60
2015,11,17,04,56,1.60
2015,11,17,04,57,1.60
2015,11,17,04,58,3.20
2015,11,17,04,59,1.60
2015,11,17,05,00,1.60
2015,11,17,05,02,1.60
2015,11,17,05,03,1.60
2015,11,17,05,04,1.60
2015,11,17,05,07,1.60
2015,11,17,05,08,1.60
2015,11,17,05,10,1.60
2015,11,17,05,11,1.60
2015,11,17,05,12,1.60
2015,11,17,05,13,3.20
2015,11,17,05,14,1.60
2015,11,17,05,15,1.60
2015,11,17,05,16,3.20
2015,11,17,05,17,3.20
2015,11,17,05,18,3.20
2015,11,17,05,19,1.60
2015,11,17,05,20,3.20
2015,11,17,05,21,4.80
2015,11,17,05,22,4.80
2015,11,17,05,23,1.60
2015,11,17,05,25,1.60
2015,11,17,05,26,3.20
2015,11,17,05,27,1.60
2015,11,17,05,28,3.20
2015,11,17,05,29,3.20
2015,11,17,05,30,3.20
2015,11,17,05,31,1.60
2015,11,17,05,32,1.60
2015,11,17,05,33,3.20
2015,11,17,05,34,3.20
2015,11,17,05,35,3.20
2015,11,17,05,36,1.60
2015,11,17,05,37,1.60
2015,11,17,05,38,3.20
2015,11,17,05,39,3.20
2015,11,17,05,40,3.20
2015,11,17,05,41,1.60
2015,11,17,05,43,1.60
2015,11,17,05,44,1.60
2015,11,17,05,45,1.60
2015,11,17,05,47,1.60
2015,11,17,05,48,1.60
2015,11,17,05,49,3.20
2015,11,17,05,50,3.20
2015,11,17,05,51,3.20
2015,11,17,05,52,1.60
2015,11,17,05,53,4.80
2015,11,17,05,54,4.80
2015,11,17,05,55,3.20
2015,11,17,05,56,3.20
2015,11,17,05,57,3.20
2015,11,17,05,58,3.20
2015,11,17,05,59,3.20
2015,11,17,06,00,1.60
2015,11,17,06,01,1.60
2015,11,17,06,02,1.60
2015,11,17,06,03,3.20
2015,11,17,06,04,3.20
2015,11,17,06,05,1.60
2015,11,17,06,06,3.20
2015,11,17,06,07,3.20
2015,11,17,06,08,1.60
2015,11,17,06,09,3.20
2015,11,17,06,10,4.80
2015,11,17,06,11,3.20
2015,11,17,06,12,1.60
2015,11,17,06,14,1.60
2015,11,17,06,15,3.20
2015,11,17,06,16,3.20
2015,11,17,06,17,3.20
2015,11,17,06,18,1.60
2015,11,17,06,19,3.20
2015,11,17,06,20,3.20
2015,11,17,06,21,1.60
2015,11,17,06,22,1.60
2015,11,17,06,23,6.40
2015,11,17,06,24,6.40
2015,11,17,06,25,8.10
2015,11,17,06,26,8.10
2015,11,17,06,27,8.10
2015,11,17,06,28,3.20
2015,11,17,06,29,4.80
2015,11,17,06,30,6.40
2015,11,17,06,31,6.40
2015,11,17,06,32,6.40
2015,11,17,06,33,3.20
2015,11,17,06,34,1.60
2015,11,17,06,35,3.20
2015,11,17,06,36,4.80
2015,11,17,06,37,6.40
2015,11,17,06,38,6.40
2015,11,17,06,39,4.80
2015,11,17,06,40,4.80
2015,11,17,06,41,6.40
2015,11,17,06,42,3.20
2015,11,17,06,43,1.60
2015,11,17,06,44,3.20
2015,11,17,06,45,3.20
2015,11,17,06,46,4.80
2015,11,17,06,47,3.20
2015,11,17,06,48,1.60
2015,11,17,06,49,3.20
2015,11,17,06,50,3.20
2015,11,17,06,51,1.60
2015,11,17,06,52,1.60
2015,11,17,06,53,3.20
2015,11,17,06,54,3.20
2015,11,17,06,55,4.80
2015,11,17,06,56,8.10
2015,11,17,06,57,3.20
2015,11,17,06,58,8.10
2015,11,17,06,59,6.40
2015,11,17,07,00,6.40
2015,11,17,07,01,4.80
2015,11,17,07,02,8.10
2015,11,17,07,03,8.10
2015,11,17,07,04,3.20
2015,11,17,07,05,6.40
2015,11,17,07,06,8.10
2015,11,17,07,07,8.10
2015,11,17,07,08,8.10
2015,11,17,07,09,4.80
2015,11,17,07,10,6.40
2015,11,17,07,11,4.80
2015,11,17,07,12,6.40
2015,11,17,07,13,11.30
2015,11,17,07,14,6.40
2015,11,17,07,15,16.10
2015,11,17,07,16,24.20
2015,11,17,07,17,20.90
2015,11,17,07,18,16.10
2015,11,17,07,19,20.90
2015,11,17,07,20,19.30
2015,11,17,07,21,27.40
2015,11,17,07,22,19.30
2015,11,17,07,23,30.60
2015,11,17,07,24,32.20
2015,11,17,07,25,27.40
2015,11,17,07,26,22.50
2015,11,17,07,27,25.70
2015,11,17,07,28,17.70
2015,11,17,07,29,20.90
2015,11,17,07,30,17.70
2015,11,17,07,31,25.70
2015,11,17,07,32,29.00
2015,11,17,07,33,11.30
2015,11,17,07,34,19.30
2015,11,17,07,35,22.50
2015,11,17,07,36,22.50
2015,11,17,07,37,29.00
2015,11,17,07,38,20.90
2015,11,17,07,39,16.10
2015,11,17,07,40,17.70
2015,11,17,07,41,22.50
2015,11,17,07,42,19.30
2015,11,17,07,43,20.90
2015,11,17,07,44,19.30
2015,11,17,07,45,16.10
2015,11,17,07,46,30.60
2015,11,17,07,47,16.10
2015,11,17,07,48,25.70
2015,11,17,07,49,29.00
2015,11,17,07,50,22.50
2015,11,17,07,51,16.10
2015,11,17,07,52,20.90
2015,11,17,07,53,17.70
2015,11,17,07,54,14.50
2015,11,17,07,55,14.50
2015,11,17,07,56,27.40
2015,11,17,07,57,19.30
2015,11,17,07,58,27.40
2015,11,17,07,59,24.20
2015,11,17,08,00,27.40
2015,11,17,08,01,16.10
2015,11,17,08,02,22.50
2015,11,17,08,03,29.00
2015,11,17,08,04,14.50
2015,11,17,08,05,11.30
2015,11,17,08,06,11.30
2015,11,17,08,07,12.90
2015,11,17,08,08,25.70
2015,11,17,08,09,22.50
2015,11,17,08,10,19.30
2015,11,17,08,11,17.70
2015,11,17,08,12,12.90
2015,11,17,08,13,20.90
2015,11,17,08,14,20.90
2015,11,17,08,15,16.10
2015,11,17,08,16,22.50
2015,11,17,08,17,27.40
2015,11,17,08,18,20.90
2015,11,17,08,19,16.10
2015,11,17,08,20,19.30
2015,11,17,08,21,20.90
2015,11,17,08,22,24.20
2015,11,17,08,23,35.40
2015,11,17,08,24,17.70
2015,11,17,08,25,29.00
2015,11,17,08,26,19.30
2015,11,17,08,27,20.90
2015,11,17,08,28,29.00
2015,11,17,08,29,30.60
2015,11,17,08,30,14.50
2015,11,17,08,31,16.10
2015,11,17,08,32,20.90
2015,11,17,08,33,19.30
2015,11,17,08,34,20.90
2015,11,17,08,35,32.20
2015,11,17,08,36,29.00
2015,11,17,08,37,29.00
2015,11,17,08,38,25.70
2015,11,17,08,39,35.40
2015,11,17,08,40,27.40
2015,11,17,08,41,20.90
2015,11,17,08,42,14.50
2015,11,17,08,43,20.90
2015,11,17,08,44,30.60
2015,11,17,08,45,33.80
2015,11,17,08,46,33.80
2015,11,17,08,47,27.40
2015,11,17,08,48,29.00
2015,11,17,08,49,37.00
2015,11,17,08,50,30.60
2015,11,17,08,51,29.00
2015,11,17,08,52,33.80
2015,11,17,08,53,25.70
2015,11,17,08,54,33.80
2015,11,17,08,55,45.10
2015,11,17,08,56,37.00
2015,11,17,08,57,25.70
2015,11,17,08,58,29.00
2015,11,17,08,59,29.00
2015,11,17,09,00,40.20
2015,11,17,09,01,41.80
2015,11,17,09,02,27.40
2015,11,17,09,03,25.70
2015,11,17,09,04,24.20
2015,11,17,09,05,22.50
2015,11,17,09,06,41.80
2015,11,17,09,07,45.10
2015,11,17,09,08,43.50
2015,11,17,09,09,35.40
2015,11,17,09,10,37.00
2015,11,17,09,11,37.00
2015,11,17,09,12,30.60
2015,11,17,09,13,35.40
2015,11,17,09,14,32.20
2015,11,17,09,15,35.40
2015,11,17,09,16,27.40
2015,11,17,09,17,33.80
2015,11,17,09,18,41.80
2015,11,17,09,19,46.70
2015,11,17,09,20,22.50
2015,11,17,09,21,40.20
2015,11,17,09,22,33.80
2015,11,17,09,23,41.80
2015,11,17,09,24,35.40
2015,11,17,09,25,37.00
2015,11,17,09,26,43.50
2015,11,17,09,27,35.40
2015,11,17,09,28,35.40
2015,11,17,09,29,35.40
2015,11,17,09,30,40.20
2015,11,17,09,31,33.80
2015,11,17,09,32,35.40
2015,11,17,09,33,30.60
2015,11,17,09,34,45.10
2015,11,17,09,35,29.00
2015,11,17,09,36,19.30
2015,11,17,09,37,33.80
2015,11,17,09,38,41.80
2015,11,17,09,39,29.00
2015,11,17,09,40,45.10
2015,11,17,09,41,37.00
2015,11,17,09,42,33.80
2015,11,17,09,43,38.60
2015,11,17,09,44,24.20
2015,11,17,09,45,32.20
2015,11,17,09,46,30.60
2015,11,17,09,47,37.00
2015,11,17,09,48,33.80
2015,11,17,09,49,51.50
2015,11,17,09,50,38.60
2015,11,17,09,51,46.70
2015,11,17,09,52,35.40
2015,11,17,09,53,32.20
2015,11,17,09,54,43.50
2015,11,17,09,55,32.20
2015,11,17,09,56,38.60
2015,11,17,09,57,40.20
2015,11,17,09,58,32.20
2015,11,17,09,59,40.20
2015,11,17,10,00,51.50
2015,11,17,10,01,30.60
2015,11,17,10,02,32.20
2015,11,17,10,03,38.60
2015,11,17,10,04,37.00
2015,11,17,10,05,40.20
2015,11,17,10,06,35.40
2015,11,17,10,07,40.20
2015,11,17,10,08,38.60
2015,11,17,10,09,37.00
2015,11,17,10,10,51.50
2015,11,17,10,11,48.30
2015,11,17,10,12,29.00
2015,11,17,10,13,51.50
2015,11,17,10,14,37.00
2015,11,17,10,15,41.80
2015,11,17,10,16,38.60
2015,11,17,10,17,37.00
2015,11,17,10,18,33.80
2015,11,17,10,19,32.20
2015,11,17,10,20,57.90
2015,11,17,10,21,32.20
2015,11,17,10,22,37.00
2015,11,17,10,23,43.50
2015,11,17,10,24,33.80
2015,11,17,10,25,38.60
2015,11,17,10,26,49.90
2015,11,17,10,27,25.70
2015,11,17,10,28,51.50
2015,11,17,10,29,32.20
2015,11,17,10,30,33.80
2015,11,17,10,31,41.80
2015,11,17,10,32,40.20
2015,11,17,10,33,40.20
2015,11,17,10,34,29.00
2015,11,17,10,35,30.60
2015,11,17,10,36,40.20
2015,11,17,10,37,29.00
2015,11,17,10,38,32.20
2015,11,17,10,39,40.20
2015,11,17,10,40,41.80
2015,11,17,10,41,25.70
2015,11,17,10,42,38.60
2015,11,17,10,43,33.80
2015,11,17,10,44,40.20
2015,11,17,10,45,35.40
2015,11,17,10,46,41.80
2015,11,17,10,47,33.80
2015,11,17,10,48,38.60
2015,11,17,10,49,32.20
2015,11,17,10,50,25.70
2015,11,17,10,51,35.40
2015,11,17,10,52,29.00
2015,11,17,10,53,40.20
2015,11,17,10,54,27.40
2015,11,17,10,55,33.80
2015,11,17,10,56,29.00
2015,11,17,10,57,35.40
2015,11,17,10,58,33.80
2015,11,17,10,59,33.80
2015,11,17,11,00,27.40
2015,11,17,11,01,30.60
2015,11,17,11,02,38.60
2015,11,17,11,03,29.00
2015,11,17,11,04,37.00
2015,11,17,11,05,35.40
2015,11,17,11,06,29.00
2015,11,17,11,07,27.40
2015,11,17,11,08,22.50
2015,11,17,11,09,25.70
2015,11,17,11,10,35.40
2015,11,17,11,11,33.80
2015,11,17,11,12,38.60
2015,11,17,11,13,25.70
2015,11,17,11,14,32.20
2015,11,17,11,15,24.20
2015,11,17,11,16,24.20
2015,11,17,11,17,24.20
2015,11,17,11,18,25.70
2015,11,17,11,19,29.00
2015,11,17,11,20,29.00
2015,11,17,11,21,27.40
2015,11,17,11,22,17.70
2015,11,17,11,23,22.50
2015,11,17,11,24,24.20
2015,11,17,11,25,30.60
2015,11,17,11,26,25.70
2015,11,17,11,27,29.00
2015,11,17,11,28,19.30
2015,11,17,11,29,30.60
2015,11,17,11,30,35.40
2015,11,17,11,31,29.00
2015,11,17,11,32,22.50
2015,11,17,11,33,29.00
2015,11,17,11,34,17.70
2015,11,17,11,35,30.60
2015,11,17,11,36,22.50
2015,11,17,11,37,24.20
2015,11,17,11,38,35.40
2015,11,17,11,39,24.20
2015,11,17,11,40,30.60
2015,11,17,11,41,25.70
2015,11,17,11,42,24.20
2015,11,17,11,43,27.40
2015,11,17,11,44,27.40
2015,11,17,11,45,29.00
2015,11,17,11,46,30.60
2015,11,17,11,47,22.50
2015,11,17,11,48,30.60
2015,11,17,11,49,25.70
2015,11,17,11,50,19.30
2015,11,17,11,51,17.70
2015,11,17,11,52,25.70
2015,11,17,11,53,14.50
2015,11,17,11,54,20.90
2015,11,17,11,55,17.70
2015,11,17,11,56,24.20
2015,11,17,11,57,20.90
2015,11,17,11,58,14.50
2015,11,17,11,59,20.90
2015,11,17,12,00,27.40
2015,11,17,12,01,20.90
2015,11,17,12,02,17.70
2015,11,17,12,03,8.10
2015,11,17,12,04,19.30
2015,11,17,12,05,17.70
2015,11,17,12,06,24.20
2015,11,17,12,07,17.70
2015,11,17,12,08,11.30
2015,11,17,12,09,20.90
2015,11,17,12,10,17.70
2015,11,17,12,11,14.50
2015,11,17,12,12,19.30
2015,11,17,12,13,27.40
2015,11,17,12,14,29.00
2015,11,17,12,15,24.20
2015,11,17,12,16,20.90
2015,11,17,12,17,17.70
2015,11,17,12,18,16.10
2015,11,17,12,19,8.10
2015,11,17,12,20,8.10
2015,11,17,12,21,14.50
2015,11,17,12,22,12.90
2015,11,17,12,23,16.10
2015,11,17,12,24,17.70
2015,11,17,12,25,16.10
2015,11,17,12,26,12.90
2015,11,17,12,27,8.10
2015,11,17,12,28,9.60
2015,11,17,12,29,8.10
2015,11,17,12,30,19.30
2015,11,17,12,31,16.10
2015,11,17,12,32,6.40
2015,11,17,12,33,14.50
2015,11,17,12,34,12.90
2015,11,17,12,35,11.30
2015,11,17,12,36,19.30
2015,11,17,12,37,14.50
2015,11,17,12,38,12.90
2015,11,17,12,39,16.10
2015,11,17,12,40,11.30
2015,11,17,12,41,35.40
2015,11,17,12,42,12.90
2015,11,17,12,43,16.10
2015,11,17,12,44,19.30
2015,11,17,12,45,19.30
2015,11,17,12,46,16.10
2015,11,17,12,47,27.40
2015,11,17,12,48,12.90
2015,11,17,12,49,9.60
2015,11,17,12,50,20.90
2015,11,17,12,51,24.20
2015,11,17,12,52,9.60
2015,11,17,12,53,19.30
2015,11,17,12,54,17.70
2015,11,17,12,55,11.30
2015,11,17,12,56,17.70
2015,11,17,12,57,12.90
2015,11,17,12,58,16.10
2015,11,17,12,59,20.90
2015,11,17,13,00,29.00
2015,11,17,13,01,25.70
2015,11,17,13,02,16.10
2015,11,17,13,03,17.70
2015,11,17,13,04,22.50
2015,11,17,13,05,19.30
2015,11,17,13,06,17.70
2015,11,17,13,07,12.90
2015,11,17,13,08,14.50
2015,11,17,13,09,8.10
2015,11,17,13,10,20.90
2015,11,17,13,11,11.30
2015,11,17,13,12,12.90
2015,11,17,13,13,14.50
2015,11,17,13,14,32.20
2015,11,17,13,15,20.90
2015,11,17,13,16,17.70
2015,11,17,13,17,24.20
2015,11,17,13,18,19.30
2015,11,17,13,19,16.10
2015,11,17,13,20,14.50
2015,11,17,13,21,14.50
2015,11,17,13,22,24.20
2015,11,17,13,23,20.90
2015,11,17,13,24,12.90
2015,11,17,13,25,19.30
2015,11,17,13,26,9.60
2015,11,17,13,27,22.50
2015,11,17,13,28,17.70
2015,11,17,13,29,17.70
2015,11,17,13,30,27.40
2015,11,17,13,31,12.90
2015,11,17,13,32,12.90
2015,11,17,13,33,24.20
2015,11,17,13,34,14.50
2015,11,17,13,35,12.90
2015,11,17,13,36,12.90
2015,11,17,13,37,14.50
2015,11,17,13,38,25.70
2015,11,17,13,39,19.30
2015,11,17,13,40,14.50
2015,11,17,13,41,32.20
2015,11,17,13,42,16.10
2015,11,17,13,43,9.60
2015,11,17,13,44,12.90
2015,11,17,13,45,20.90
2015,11,17,13,46,12.90
2015,11,17,13,47,22.50
2015,11,17,13,48,14.50
2015,11,17,13,49,20.90
2015,11,17,13,50,20.90
2015,11,17,13,51,14.50
2015,11,17,13,52,25.70
2015,11,17,13,53,20.90
2015,11,17,13,54,12.90
2015,11,17,13,55,24.20
2015,11,17,13,56,16.10
2015,11,17,13,57,16.10
2015,11,17,13,58,20.90
2015,11,17,13,59,22.50
2015,11,17,14,00,14.50
2015,11,17,14,01,17.70
2015,11,17,14,02,14.50
2015,11,17,14,03,14.50
2015,11,17,14,04,20.90
2015,11,17,14,05,12.90
2015,11,17,14,06,14.50
2015,11,17,14,07,20.90
2015,11,17,14,08,24.20
2015,11,17,14,09,27.40
2015,11,17,14,10,16.10
2015,11,17,14,11,24.20
2015,11,17,14,12,22.50
2015,11,17,14,13,22.50
2015,11,17,14,14,20.90
2015,11,17,14,15,11.30
2015,11,17,14,16,12.90
2015,11,17,14,17,16.10
2015,11,17,14,18,12.90
2015,11,17,14,19,17.70
2015,11,17,14,20,16.10
2015,11,17,14,21,9.60
2015,11,17,14,22,17.70
2015,11,17,14,23,24.20
2015,11,17,14,24,24.20
2015,11,17,14,25,14.50
2015,11,17,14,26,19.30
2015,11,17,14,27,19.30
2015,11,17,14,28,25.70
2015,11,17,14,29,25.70
2015,11,17,14,30,11.30
2015,11,17,14,31,17.70
2015,11,17,14,32,17.70
2015,11,17,14,33,20.90
2015,11,17,14,34,20.90
2015,11,17,14,35,24.20
2015,11,17,14,36,16.10
2015,11,17,14,37,12.90
2015,11,17,14,38,6.40
2015,11,17,14,39,27.40
2015,11,17,14,40,14.50
2015,11,17,14,41,17.70
2015,11,17,14,42,24.20
2015,11,17,14,43,25.70
2015,11,17,14,44,38.60
2015,11,17,14,45,24.20
2015,11,17,14,46,33.80
2015,11,17,14,47,27.40
2015,11,17,14,48,19.30
2015,11,17,14,49,22.50
2015,11,17,14,50,17.70
2015,11,17,14,51,16.10
2015,11,17,14,52,16.10
2015,11,17,14,53,16.10
2015,11,17,14,54,14.50
2015,11,17,14,55,14.50
2015,11,17,14,56,14.50
2015,11,17,14,57,12.90
2015,11,17,14,58,19.30
2015,11,17,14,59,12.90
2015,11,17,15,00,17.70
2015,11,17,15,01,16.10
2015,11,17,15,02,16.10
2015,11,17,15,03,17.70
2015,11,17,15,04,12.90
2015,11,17,15,05,22.50
2015,11,17,15,06,17.70
2015,11,17,15,07,11.30
2015,11,17,15,08,8.10
2015,11,17,15,09,11.30
2015,11,17,15,10,11.30
2015,11,17,15,11,19.30
2015,11,17,15,12,14.50
2015,11,17,15,13,16.10
2015,11,17,15,14,27.40
2015,11,17,15,15,22.50
2015,11,17,15,16,22.50
2015,11,17,15,17,25.70
2015,11,17,15,18,24.20
2015,11,17,15,19,24.20
2015,11,17,15,20,16.10
2015,11,17,15,21,17.70
2015,11,17,15,22,20.90
2015,11,17,15,23,16.10
2015,11,17,15,24,20.90
2015,11,17,15,25,17.70
2015,11,17,15,26,25.70
2015,11,17,15,27,29.00
2015,11,17,15,28,20.90
2015,11,17,15,29,20.90
2015,11,17,15,30,22.50
2015,11,17,15,31,9.60
2015,11,17,15,32,12.90
2015,11,17,15,33,12.90
2015,11,17,15,34,29.00
2015,11,17,15,35,17.70
2015,11,17,15,36,16.10
2015,11,17,15,37,24.20
2015,11,17,15,38,24.20
2015,11,17,15,39,22.50
2015,11,17,15,40,16.10
2015,11,17,15,41,16.10
2015,11,17,15,42,14.50
2015,11,17,15,43,17.70
2015,11,17,15,44,14.50
2015,11,17,15,45,14.50
2015,11,17,15,46,14.50
2015,11,17,15,47,19.30
2015,11,17,15,48,14.50
2015,11,17,15,49,19.30
2015,11,17,15,50,17.70
2015,11,17,15,51,29.00
2015,11,17,15,52,9.60
2015,11,17,15,53,20.90
2015,11,17,15,54,9.60
2015,11,17,15,55,25.70
2015,11,17,15,56,25.70
2015,11,17,15,57,25.70
2015,11,17,15,58,29.00
2015,11,17,15,59,17.70
2015,11,17,16,00,16.10
2015,11,17,16,01,20.90
2015,11,17,16,02,25.70
2015,11,17,16,03,16.10
2015,11,17,16,04,24.20
2015,11,17,16,05,17.70
2015,11,17,16,06,17.70
2015,11,17,16,07,25.70
2015,11,17,16,08,29.00
2015,11,17,16,09,25.70
2015,11,17,16,10,16.10
2015,11,17,16,11,20.90
2015,11,17,16,12,12.90
2015,11,17,16,13,20.90
2015,11,17,16,14,20.90
2015,11,17,16,15,19.30
2015,11,17,16,16,19.30
2015,11,17,16,17,24.20
2015,11,17,16,18,19.30
2015,11,17,16,19,17.70
2015,11,17,16,20,22.50
2015,11,17,16,21,16.10
2015,11,17,16,22,12.90
2015,11,17,16,23,17.70
2015,11,17,16,24,11.30
2015,11,17,16,25,14.50
2015,11,17,16,26,29.00
2015,11,17,16,27,25.70
2015,11,17,16,28,20.90
2015,11,17,16,29,20.90
2015,11,17,16,30,11.30
2015,11,17,16,31,12.90
2015,11,17,16,32,22.50
2015,11,17,16,33,14.50
2015,11,17,16,34,14.50
2015,11,17,16,35,20.90
2015,11,17,16,36,17.70
2015,11,17,16,37,14.50
2015,11,17,16,38,27.40
2015,11,17,16,39,9.60
2015,11,17,16,40,20.90
2015,11,17,16,41,20.90
2015,11,17,16,42,17.70
2015,11,17,16,43,24.20
2015,11,17,16,44,20.90
2015,11,17,16,45,27.40
2015,11,17,16,46,17.70
2015,11,17,16,47,12.90
2015,11,17,16,48,29.00
2015,11,17,16,49,20.90
2015,11,17,16,50,20.90
2015,11,17,16,51,24.20
2015,11,17,16,52,24.20
2015,11,17,16,53,16.10
2015,11,17,16,54,25.70
2015,11,17,16,55,30.60
2015,11,17,16,56,29.00
2015,11,17,16,57,22.50
2015,11,17,16,58,20.90
2015,11,17,16,59,20.90
2015,11,17,17,00,22.50
2015,11,17,17,01,25.70
2015,11,17,17,02,33.80
2015,11,17,17,03,25.70
2015,11,17,17,04,12.90
2015,11,17,17,05,12.90
2015,11,17,17,06,9.60
2015,11,17,17,07,17.70
2015,11,17,17,08,16.10
2015,11,17,17,09,12.90
2015,11,17,17,10,20.90
2015,11,17,17,11,27.40
2015,11,17,17,12,22.50
2015,11,17,17,13,17.70
2015,11,17,17,14,20.90
2015,11,17,17,15,22.50
2015,11,17,17,16,16.10
2015,11,17,17,17,14.50
2015,11,17,17,18,20.90
2015,11,17,17,19,19.30
2015,11,17,17,20,11.30
2015,11,17,17,21,22.50
2015,11,17,17,22,19.30
2015,11,17,17,23,17.70
2015,11,17,17,24,25.70
2015,11,17,17,25,22.50
2015,11,17,17,26,27.40
2015,11,17,17,27,33.80
2015,11,17,17,28,27.40
2015,11,17,17,29,32.20
2015,11,17,17,30,33.80
2015,11,17,17,31,30.60
2015,11,17,17,32,40.20
2015,11,17,17,33,32.20
2015,11,17,17,34,20.90
2015,11,17,17,35,19.30
2015,11,17,17,36,24.20
2015,11,17,17,37,20.90
2015,11,17,17,38,14.50
2015,11,17,17,39,25.70
2015,11,17,17,40,12.90
2015,11,17,17,41,11.30
2015,11,17,17,42,14.50
2015,11,17,17,43,14.50
2015,11,17,17,44,20.90
2015,11,17,17,45,12.90
2015,11,17,17,46,12.90
2015,11,17,17,47,9.60
2015,11,17,17,48,8.10
2015,11,17,17,49,9.60
2015,11,17,17,50,16.10